Location: Bourguignon
(49.5441°N, 3.1585°E)
Time: 15:38:12
(UTC+00:00)

Okean 1-7 Rocket - Pass Details

Date: 15 May 2026
Orbit: 611 x 641 km, 82.5° (Epoch: 10 June)

Event Time Altitude Azimuth Distance (km) Brightness Sun altitude
Rises 21:41:07 0° 347° (NNW) 2,928 8.5 -16.2°
Reaches altitude 10° 21:43:22 10° 343° (NNW) 2,020 7.4 -16.4°
Maximum altitude 21:47:46 59° 265° (W) 735 4.0 -16.8°
Enters shadow 21:50:21 24° 193° (SSW) 1,328 4.8 -17.0°
